period_start,C,m1,H,J0,J1,J2,J3,J4,J5,JA,JB,JC,JD,JJ,JK,JN,#
2018-10-04 00:04:59,0.00,0.00,0.00,22.69,26.95,29.14,-0.10,-3.00,1015.17,2028.00,3739.97,3064.99,3527.00,0.00,0.00,0.00,0000 0000 0000 A000 020008
2018-10-04 00:10:00,0.00,0.00,0.00,22.69,26.95,29.12,-0.10,-3.00,1015.18,2028.00,3739.94,3064.99,3526.99,0.00,0.00,0.00,0000 0000 0000 A000 020008
2018-10-04 00:15:01,0.00,0.00,0.00,22.69,26.97,29.14,-0.10,-3.00,1015.21,2028.00,3739.88,3064.97,3526.99,0.00,0.00,0.00,0000 0000 0000 A000 020008
2018-10-04 00:20:02,0.00,0.00,0.00,22.69,26.97,29.14,-0.10,-3.00,1015.43,2027.99,3739.69,3064.96,3526.97,0.00,0.00,0.00,0000 0000 0000 A000 020008
2018-10-04 00:25:04,0.00,0.00,0.00,22.69,26.99,29.15,-0.10,-3.00,1015.59,2027.99,3739.36,3064.90,3526.94,0.00,0.00,0.00,0000 0000 0000 A000 020008
2018-10-04 00:30:05,0.00,0.00,0.00,22.71,27.00,29.16,-0.10,-3.00,1015.62,2027.99,3739.15,3064.66,3526.84,0.00,0.00,0.00,0000 0000 0000 A000 020008
2018-10-04 00:35:06,0.00,0.00,0.00,22.72,27.00,29.18,-0.10,-3.00,1015.64,2027.98,3739.05,3064.28,3526.46,0.00,0.00,0.00,0000 0000 0000 A000 020008
2018-10-04 00:40:07,0.00,0.00,0.00,22.72,27.02,29.21,-0.10,-3.00,1015.64,2027.98,3739.03,3064.14,3526.30,0.00,0.00,0.00,0000 0000 0000 A000 020008
2018-10-04 00:45:08,0.00,0.00,0.00,22.72,27.02,29.17,-0.10,-3.00,1015.64,2027.97,3739.02,3064.06,3526.11,0.00,0.00,0.00,0000 0000 0000 A000 020008
2018-10-04 00:50:09,0.00,0.00,0.00,22.74,27.03,29.20,-0.10,-3.00,1015.64,2027.98,3739.00,3064.04,3526.06,0.00,0.00,0.00,0000 0000 0000 A000 020008
2018-10-04 00:55:10,0.00,0.00,0.00,22.74,27.05,29.21,-0.10,-3.00,1015.64,2027.97,3739.00,3064.02,3526.03,0.00,0.00,0.00,0000 0000 0000 A000 020008
2018-10-04 01:00:12,0.00,0.00,0.00,22.75,27.05,29.23,-0.10,-3.00,1015.65,2027.93,3739.00,3064.00,3526.01,0.00,0.00,0.00,0000 0000 0000 A000 020008
2018-10-04 01:05:13,0.00,0.00,0.00,22.76,27.06,29.25,-0.10,-3.00,1015.66,2027.91,3739.00,3064.00,3526.01,0.00,0.00,0.00,0000 0000 0000 A000 020008
2018-10-04 01:10:14,0.00,0.00,0.00,22.77,27.07,29.23,-0.10,-3.00,1015.68,2027.92,3738.99,3064.00,3526.01,0.00,0.00,0.00,0000 0000 0000 A000 020008
2018-10-04 01:15:15,0.00,0.00,0.00,22.77,27.07,29.23,-0.10,-3.00,1015.67,2027.88,3738.99,3064.00,3526.00,0.00,0.00,0.00,0000 0000 0000 A000 020008
2018-10-04 01:20:16,0.00,0.00,0.00,22.79,27.09,29.24,-0.10,-3.00,1015.66,2027.89,3738.99,3064.00,3526.00,0.00,0.00,0.00,0000 0000 0000 A000 020008
2018-10-04 01:25:17,0.00,0.00,0.00,22.79,27.10,29.24,-0.10,-3.00,1015.66,2027.88,3738.99,3064.00,3526.00,0.00,0.00,0.00,0000 0000 0000 A000 020008
2018-10-04 01:30:19,0.00,0.00,0.00,22.81,27.10,29.28,-0.10,-3.01,1015.71,2027.56,3738.98,3064.00,3526.00,0.00,0.00,0.00,0000 0000 0000 A000 020008
2018-10-04 01:35:20,0.00,0.00,0.00,22.82,27.12,29.29,-0.10,-3.00,1015.81,2027.33,3738.96,3064.00,3525.99,0.00,0.00,0.00,0000 0000 0000 A000 020008
2018-10-04 01:40:21,0.00,0.00,0.00,22.84,27.12,29.28,-0.10,-3.00,1015.91,2027.13,3738.77,3064.00,3525.96,0.00,0.00,0.00,0000 0000 0000 A000 020008
2018-10-04 01:45:22,0.00,0.00,0.00,22.84,27.12,29.30,-0.10,-3.00,1016.07,2027.06,3738.30,3063.98,3525.85,0.00,0.00,0.00,0000 0000 0000 A000 020008
2018-10-04 01:50:24,0.00,0.00,0.00,22.85,27.14,29.30,-0.10,-3.00,1016.13,2027.04,3738.32,3063.97,3525.82,0.00,0.00,0.00,0000 0000 0000 A000 020008
2018-10-04 01:55:25,0.00,0.00,0.00,22.87,27.15,29.34,-0.10,-3.01,1016.13,2027.02,3738.11,3063.90,3525.53,0.00,0.00,0.00,0000 0000 0000 A000 020008
2018-10-04 02:00:26,0.00,0.00,0.00,22.88,27.15,29.35,-0.10,-3.00,1016.13,2027.02,3738.03,3063.73,3525.18,0.00,0.00,0.00,0000 0000 0000 A000 020008
2018-10-04 02:05:28,0.00,0.00,0.00,22.89,27.17,29.34,-0.10,-3.00,1016.13,2027.00,3738.01,3063.37,3525.04,0.00,0.00,0.00,0000 0000 0000 A000 020008
2018-10-04 02:10:29,0.00,0.00,0.00,22.90,27.17,29.31,-0.10,-3.00,1016.14,2027.00,3738.00,3063.14,3525.02,0.00,0.00,0.00,0000 0000 0000 A000 020008
2018-10-04 02:15:30,0.00,0.00,0.00,22.93,27.19,29.34,-0.10,-3.00,1016.14,2027.00,3738.00,3063.08,3525.00,0.00,0.00,0.00,0000 0000 0000 A000 020008
2018-10-04 02:20:32,0.00,0.00,0.00,22.94,27.20,29.38,-0.10,-3.01,1016.14,2027.00,3738.00,3063.01,3525.00,0.00,0.00,0.00,0000 0000 0000 A000 020008
2018-10-04 02:25:33,0.00,0.00,0.00,22.96,27.20,29.39,-0.10,-3.02,1016.16,2027.00,3737.98,3063.00,3525.00,0.00,0.00,0.00,0000 0000 0000 A000 020008
2018-10-04 02:30:34,0.00,0.00,0.00,22.98,27.22,29.41,-0.10,-3.00,1016.19,2027.00,3737.98,3063.00,3525.00,0.00,0.00,0.00,0000 0000 0000 A000 020008
2018-10-04 02:35:35,0.00,0.00,0.00,23.00,27.22,29.40,-0.10,-3.02,1016.34,2027.00,3737.98,3063.00,3524.99,0.00,0.00,0.00,0000 0000 0000 A000 020008
2018-10-04 02:40:36,0.00,0.00,0.00,23.02,27.24,29.45,-0.10,-3.02,1016.54,2026.98,3737.73,3063.00,3524.91,0.00,0.00,0.00,0000 0000 0000 A000 020008
2018-10-04 02:45:38,0.00,0.00,0.00,23.04,27.25,29.42,-0.10,-3.02,1016.61,2026.98,3737.41,3062.97,3524.74,0.00,0.00,0.00,0000 0000 0000 A000 020008
2018-10-04 02:50:39,0.00,0.00,0.00,23.06,27.26,29.43,-0.10,-3.02,1016.62,2026.95,3737.16,3062.95,3524.39,0.00,0.00,0.00,0000 0000 0000 A000 020008
2018-10-04 02:55:40,0.00,0.00,0.00,23.08,27.27,29.47,-0.10,-3.04,1016.62,2026.93,3737.03,3062.90,3524.08,0.00,0.00,0.00,0000 0000 0000 A000 020008
2018-10-04 03:00:41,0.00,0.00,0.00,23.09,27.29,29.52,-0.10,-3.04,1016.62,2026.81,3737.00,3062.52,3524.02,0.00,0.00,0.00,0000 0000 0000 A000 020008
2018-10-04 03:05:42,0.00,0.00,0.00,23.11,27.30,29.52,-0.10,-3.04,1016.64,2026.78,3737.00,3062.35,3524.01,0.00,0.00,0.00,0000 0000 0000 A000 020008
2018-10-04 03:10:44,0.00,0.00,0.00,23.13,27.32,29.48,-0.10,-3.03,1016.68,2026.54,3737.00,3062.21,3524.00,0.00,0.00,0.00,0000 0000 0000 A000 020008
2018-10-04 03:15:45,0.00,0.00,0.00,23.15,27.32,29.52,-0.10,-3.08,1016.72,2026.35,3737.00,3062.06,3524.00,0.00,0.00,0.00,0000 0000 0000 A000 020008
2018-10-04 03:20:46,0.00,0.00,0.00,23.18,27.35,29.57,-0.10,-3.03,1016.82,2026.13,3736.99,3062.03,3524.00,0.00,0.00,0.00,0000 0000 0000 A000 020008
2018-10-04 03:25:47,0.00,0.00,0.00,23.19,27.36,29.57,-0.10,-3.01,1017.05,2026.05,3736.98,3062.00,3523.99,0.00,0.00,0.00,0000 0000 0000 A000 020008
2018-10-04 03:30:48,0.00,0.00,0.00,23.21,27.37,29.63,-0.10,-3.07,1017.10,2026.03,3736.96,3062.00,3523.98,0.00,0.00,0.00,0000 0000 0000 A000 020008
2018-10-04 03:35:49,0.00,0.00,0.00,23.23,27.39,29.61,-0.10,-3.11,1017.11,2026.02,3736.95,3062.00,3523.96,0.00,0.00,0.00,0000 0000 0000 A000 020008
2018-10-04 03:40:50,0.00,0.00,0.00,23.24,27.40,29.62,-0.10,-3.08,1017.11,2026.03,3736.60,3062.00,3523.56,0.00,0.00,0.00,0000 0000 0000 A000 020008
2018-10-04 03:45:51,0.00,0.00,0.00,23.26,27.42,29.66,-0.10,-3.13,1017.18,2026.00,3736.15,3061.98,3523.17,0.00,0.00,0.00,0000 0000 0000 A000 020008
2018-10-04 03:50:53,0.00,0.00,0.00,23.27,27.43,29.68,-0.10,-3.13,1017.38,2026.00,3736.06,3061.95,3523.03,0.00,0.00,0.00,0000 0000 0000 A000 020008
2018-10-04 03:55:54,0.00,0.00,0.00,23.29,27.45,29.68,-0.10,-3.13,1017.57,2026.00,3736.01,3061.73,3523.01,0.00,0.00,0.00,0000 0000 0000 A000 020008
2018-10-04 04:00:55,0.00,0.00,0.00,23.30,27.47,29.72,-0.10,-3.16,1017.59,2025.99,3736.00,3061.36,3523.00,0.00,0.00,0.00,0000 0000 0000 A000 020008
2018-10-04 04:05:56,0.00,0.00,0.00,23.32,27.48,29.73,-0.10,-3.13,1017.59,2025.98,3736.00,3061.10,3522.99,0.00,0.00,0.00,0000 0000 0000 A000 020008
2018-10-04 04:10:57,0.00,0.00,0.00,23.32,27.50,29.74,-0.10,-3.13,1017.59,2025.98,3735.98,3061.03,3522.96,0.00,0.00,0.00,0000 0000 0000 A000 020008
2018-10-04 04:15:58,0.00,0.00,0.00,23.35,27.51,29.75,-0.10,-3.11,1017.60,2025.97,3735.96,3061.00,3522.90,0.00,0.00,0.00,0000 0000 0000 A000 020008
2018-10-04 04:20:59,0.00,0.00,0.00,23.35,27.52,29.75,-0.10,-3.12,1017.61,2025.95,3735.88,3061.00,3522.63,0.00,0.00,0.00,0000 0000 0000 A000 020008
2018-10-04 04:26:00,0.00,0.00,0.00,23.37,27.55,29.78,-0.10,-3.17,1017.64,2025.87,3735.71,3061.00,3522.31,0.00,0.00,0.00,0000 0000 0000 A000 020008
2018-10-04 04:31:01,0.00,0.00,0.00,23.38,27.56,29.79,-0.10,-3.18,1017.75,2025.76,3735.32,3061.00,3522.07,0.00,0.00,0.00,0000 0000 0000 A000 020008
2018-10-04 04:36:02,0.00,0.00,0.00,23.39,27.57,29.79,-0.10,-3.19,1017.95,2025.69,3735.30,3060.99,3522.07,0.00,0.00,0.00,0000 0000 0000 A000 020008
2018-10-04 04:41:03,0.00,0.00,0.00,23.40,27.59,29.79,-0.10,-3.19,1018.06,2025.38,3735.10,3060.97,3522.03,0.00,0.00,0.00,0000 0000 0000 A000 020008
2018-10-04 04:46:05,0.00,0.00,0.00,23.42,27.60,29.82,-0.10,-3.15,1018.08,2025.21,3735.01,3060.94,3522.00,0.00,0.00,0.00,0000 0000 0000 A000 020008
2018-10-04 04:51:06,0.00,0.00,0.00,23.42,27.62,29.88,-0.10,-3.21,1018.08,2025.07,3735.00,3060.72,3522.00,0.00,0.00,0.00,0000 0000 0000 A000 020008
2018-10-04 04:56:07,0.00,0.00,0.00,23.44,27.63,29.86,-0.10,-3.20,1018.08,2025.04,3735.00,3060.28,3521.99,0.00,0.00,0.00,0000 0000 0000 A000 020008
2018-10-04 05:01:08,0.00,0.00,0.00,23.46,27.65,29.86,-0.10,-3.17,1018.09,2025.01,3735.00,3060.08,3521.97,0.00,0.00,0.00,0000 0000 0000 A000 020008
2018-10-04 05:06:09,0.00,0.00,0.00,23.47,27.66,29.87,-0.10,-3.20,1018.11,2025.00,3734.98,3060.01,3521.88,0.00,0.00,0.00,0000 0000 0000 A000 020008
2018-10-04 05:11:10,0.00,0.00,0.00,23.48,27.67,29.90,-0.10,-3.23,1018.16,2025.00,3734.93,3060.00,3521.58,0.00,0.00,0.00,0000 0000 0000 A000 020008
2018-10-04 05:16:11,0.00,0.00,0.00,23.50,27.69,29.90,-0.10,-3.20,1018.32,2025.00,3734.68,3060.00,3521.14,0.00,0.00,0.00,0000 0000 0000 A000 020008
2018-10-04 05:21:12,0.00,0.00,0.00,23.52,27.70,29.93,-0.10,-3.24,1018.54,2025.00,3734.40,3060.00,3521.06,0.00,0.00,0.00,0000 0000 0000 A000 020008
2018-10-04 05:26:13,0.00,0.00,0.00,23.52,27.72,29.93,-0.10,-3.20,1018.57,2025.00,3734.28,3060.00,3521.03,0.00,0.00,0.00,0000 0000 0000 A000 020008
2018-10-04 05:31:14,0.00,0.00,0.00,23.54,27.73,29.95,-0.10,-3.23,1018.57,2024.99,3734.04,3059.99,3521.00,0.00,0.00,0.00,0000 0000 0000 A000 020008
2018-10-04 05:36:15,0.00,0.00,0.00,23.55,27.75,29.99,-0.10,-3.24,1018.57,2024.98,3734.01,3059.96,3521.00,0.00,0.00,0.00,0000 0000 0000 A000 020008
2018-10-04 05:41:16,0.00,0.00,0.00,23.56,27.76,30.01,-0.10,-3.21,1018.60,2024.99,3734.00,3059.94,3521.00,0.00,0.00,0.00,0000 0000 0000 A000 020008
2018-10-04 05:46:17,0.00,0.00,0.00,23.57,27.77,30.02,-0.10,-3.24,1018.71,2024.97,3734.00,3059.74,3520.99,0.00,0.00,0.00,0000 0000 0000 A000 020008
2018-10-04 05:51:18,0.00,0.00,0.00,23.59,27.80,29.99,-0.10,-3.24,1018.94,2024.93,3734.00,3059.29,3520.97,0.00,0.00,0.00,0000 0000 0000 A000 020008
2018-10-04 05:56:20,0.00,0.00,0.00,23.60,27.80,30.00,-0.10,-3.25,1019.05,2024.88,3733.99,3059.09,3520.82,0.00,0.00,0.00,0000 0000 0000 A000 020008
2018-10-04 06:01:21,0.00,0.00,0.00,23.61,27.82,30.00,-0.10,-3.25,1019.06,2024.51,3733.85,3059.01,3520.21,0.00,0.00,0.00,0000 0000 0000 A000 020008
2018-10-04 06:06:23,0.00,0.00,0.00,23.62,27.83,30.03,-0.10,-3.23,1019.06,2024.34,3733.63,3059.00,3520.07,0.00,0.00,0.00,0000 0000 0000 A000 020008
2018-10-04 06:11:24,0.00,0.00,0.00,23.62,27.85,30.05,-0.10,-3.24,1019.07,2024.15,3733.35,3059.00,3520.02,0.00,0.00,0.00,0000 0000 0000 A000 020008
2018-10-04 06:16:25,0.00,0.00,0.00,23.64,27.86,30.03,-0.10,-3.25,1019.09,2024.06,3733.09,3059.00,3520.00,0.00,0.00,0.00,0000 0000 0000 A000 020008
2018-10-04 06:21:26,0.00,0.00,0.00,23.65,27.87,30.05,-0.10,-3.25,1019.25,2024.03,3733.03,3058.99,3520.00,0.00,0.00,0.00,0000 0000 0000 A000 020008
2018-10-04 06:26:28,0.00,0.00,0.00,23.66,27.89,30.09,-0.10,-3.25,1019.41,2024.01,3733.00,3058.98,3520.00,0.00,0.00,0.00,0000 0000 0000 A000 020008
2018-10-04 06:31:29,0.00,0.00,0.00,23.67,27.90,30.10,-0.10,-3.25,1019.54,2024.00,3733.00,3058.89,3520.00,0.00,0.00,0.00,0000 0000 0000 A000 020008
2018-10-04 06:36:30,0.00,0.00,0.00,23.68,27.91,30.10,-0.10,-3.25,1019.55,2024.00,3733.00,3058.72,3519.97,0.00,0.00,0.00,0000 0000 0000 A000 020008
2018-10-04 06:41:32,0.00,0.00,0.00,23.70,27.92,30.14,-0.10,-3.25,1019.56,2024.00,3732.98,3058.26,3519.84,0.00,0.00,0.00,0000 0000 0000 A000 020008
2018-10-04 06:46:33,0.00,0.00,0.00,23.70,27.94,30.15,-0.10,-3.25,1019.60,2024.00,3732.94,3058.07,3519.46,0.00,0.00,0.00,0000 0000 0000 A000 020008
2018-10-04 06:51:33,0.00,0.00,0.00,23.72,27.95,30.15,-0.10,-3.25,1019.71,2024.00,3732.57,3058.02,3519.06,0.00,0.00,0.00,0000 0000 0000 A000 020008
2018-10-04 06:56:34,0.00,0.00,0.00,23.72,27.97,30.16,-0.10,-3.25,1019.95,2023.99,3732.31,3058.00,3519.02,0.00,0.00,0.00,0000 0000 0000 A000 020008
2018-10-04 07:01:36,0.00,0.00,0.00,23.74,27.97,30.13,-0.10,-3.25,1020.02,2023.99,3732.12,3058.00,3519.00,0.00,0.00,0.00,0000 0000 0000 A000 020008
2018-10-04 07:06:37,0.00,0.00,0.00,23.75,28.00,30.16,-0.10,-3.25,1020.03,2023.98,3732.04,3058.00,3519.00,0.00,0.00,0.00,0000 0000 0000 A000 020008
2018-10-04 07:11:38,0.00,0.00,0.00,23.76,28.00,30.17,-0.10,-3.25,1020.04,2023.97,3732.01,3058.00,3519.00,0.00,0.00,0.00,0000 0000 0000 A000 020008
2018-10-04 07:16:39,0.00,0.00,0.00,23.77,28.02,30.18,-0.10,-3.25,1020.05,2023.95,3732.00,3057.98,3519.00,0.00,0.00,0.00,0000 0000 0000 A000 020008
2018-10-04 07:21:41,0.00,0.00,0.00,23.77,28.03,30.21,-0.10,-3.25,1020.15,2023.80,3732.00,3057.92,3518.99,0.00,0.00,0.00,0000 0000 0000 A000 020008
2018-10-04 07:26:42,0.00,0.00,0.00,23.79,28.05,30.22,-0.10,-3.25,1020.41,2023.74,3732.00,3057.91,3518.98,0.00,0.00,0.00,0000 0000 0000 A000 020008
2018-10-04 07:31:43,0.00,0.00,0.00,23.80,28.06,30.20,-0.10,-3.25,1020.50,2023.34,3731.97,3057.52,3518.88,0.00,0.00,0.00,0000 0000 0000 A000 020008
2018-10-04 07:36:44,0.00,0.00,0.00,23.81,28.07,30.21,-0.10,-3.25,1020.52,2023.09,3731.93,3057.12,3518.43,0.00,0.00,0.00,0000 0000 0000 A000 020008
2018-10-04 07:41:46,0.00,0.00,0.00,23.82,28.08,30.23,-0.11,-3.26,1020.52,2023.07,3731.84,3057.06,3518.19,0.00,0.00,0.00,0000 0000 0000 A000 020008
2018-10-04 07:46:47,0.00,0.00,0.00,23.82,28.10,30.24,-0.10,-3.25,1020.52,2023.02,3731.20,3057.01,3518.02,0.00,0.00,0.00,0000 0000 0000 A000 020008
2018-10-04 07:51:48,0.00,0.00,0.00,23.83,28.10,30.27,-0.10,-3.30,1020.54,2023.00,3731.05,3057.00,3518.00,0.00,0.00,0.00,0000 0000 0000 A000 020008
2018-10-04 07:56:49,0.00,0.00,0.00,23.85,28.12,30.26,-0.10,-3.30,1020.78,2023.00,3731.03,3057.00,3518.00,0.00,0.00,0.00,0000 0000 0000 A000 020008
2018-10-04 08:01:50,0.00,0.00,0.00,23.85,28.13,30.28,-0.10,-3.33,1021.00,2023.00,3731.01,3057.00,3518.00,0.00,0.00,0.00,0000 0000 0000 A000 020008
2018-10-04 08:06:51,0.00,0.00,0.00,23.87,28.15,30.28,-0.11,-3.30,1021.01,2023.00,3731.00,3056.99,3517.99,0.00,0.00,0.00,0000 0000 0000 A000 020008
2018-10-04 08:11:52,0.00,0.00,0.00,23.87,28.15,30.29,-0.10,-3.39,1021.01,2023.00,3731.00,3056.99,3517.99,0.00,0.00,0.00,0000 0000 0000 A000 020008
2018-10-04 08:16:53,0.00,0.00,0.00,23.89,28.17,30.28,-0.11,-3.46,1021.04,2023.00,3731.00,3056.97,3517.99,0.00,0.00,0.00,0000 0000 0000 A000 020008
2018-10-04 08:21:54,0.00,0.00,0.00,23.89,28.17,30.31,-0.11,-3.46,1021.13,2023.00,3731.00,3056.98,3517.99,0.00,0.00,0.00,0000 0000 0000 A000 020008
2018-10-04 08:26:55,0.00,0.00,0.00,23.90,28.17,30.33,-0.11,-3.50,1021.34,2022.99,3731.00,3056.97,3517.98,0.00,0.00,0.00,0000 0000 0000 A000 020008
2018-10-04 08:31:56,0.00,0.00,0.00,23.91,28.20,30.33,-0.11,-3.50,1021.48,2022.98,3730.99,3056.81,3517.75,0.00,0.00,0.00,0000 0000 0000 A000 020008
2018-10-04 08:36:57,0.00,0.00,0.00,23.93,28.20,30.32,-0.11,-3.49,1021.50,2022.98,3730.95,3056.55,3517.36,0.00,0.00,0.00,0000 0000 0000 A000 020008
2018-10-04 08:41:58,0.00,0.00,0.00,23.95,28.22,30.35,-0.11,-3.48,1021.50,2022.97,3730.76,3056.16,3517.09,0.00,0.00,0.00,0000 0000 0000 A000 020008
2018-10-04 08:46:59,0.00,0.00,0.00,23.95,28.22,30.44,-0.10,-3.48,1021.50,2022.94,3730.45,3056.05,3517.03,0.00,0.00,0.00,0000 0000 0000 A000 020008
2018-10-04 08:52:00,0.00,0.00,0.00,23.97,28.23,30.37,-0.11,-3.48,1021.51,2022.78,3730.09,3056.01,3517.00,0.00,0.00,0.00,0000 0000 0000 A000 020008
2018-10-04 08:57:01,0.00,0.00,0.00,24.00,28.25,30.39,-0.10,-3.49,1021.52,2022.63,3730.03,3056.00,3517.00,0.00,0.00,0.00,0000 0000 0000 A000 020008
2018-10-04 09:02:02,0.00,0.00,0.00,24.00,28.26,30.43,-0.11,-3.50,1021.55,2022.58,3730.02,3056.00,3517.00,0.00,0.00,0.00,0000 0000 0000 A000 020008
2018-10-04 09:07:04,0.00,0.00,0.00,24.02,28.27,30.42,-0.11,-3.49,1021.67,2022.44,3730.00,3056.00,3516.99,0.00,0.00,0.00,0000 0000 0000 A000 020008
2018-10-04 09:12:05,0.00,0.00,0.00,24.05,28.27,30.43,-0.11,-3.47,1021.93,2022.21,3730.00,3056.00,3516.98,0.00,0.00,0.00,0000 0000 0000 A000 020008
2018-10-04 09:17:06,0.00,0.00,0.00,24.05,28.30,30.46,-0.11,-3.46,1021.99,2022.12,3730.00,3056.00,3516.96,0.00,0.00,0.00,0000 0000 0000 A000 020008
2018-10-04 09:22:07,0.00,0.00,0.00,24.06,28.30,30.46,-0.11,-3.50,1021.99,2022.05,3730.00,3055.98,3516.85,0.00,0.00,0.00,0000 0000 0000 A000 020008
2018-10-04 09:27:09,0.00,0.00,0.00,24.07,28.32,30.48,-0.11,-3.50,1022.00,2022.02,3729.97,3055.96,3516.62,0.00,0.00,0.00,0000 0000 0000 A000 020008
2018-10-04 09:32:10,0.00,0.00,0.00,24.09,28.32,30.48,-0.11,-3.50,1022.04,2022.01,3729.96,3055.95,3516.24,0.00,0.00,0.00,0000 0000 0000 A000 020008
2018-10-04 09:37:12,0.00,0.00,0.00,24.10,28.34,30.50,-0.11,-3.50,1022.14,2022.01,3729.97,3055.95,3516.17,0.00,0.00,0.00,0000 0000 0000 A000 020008
2018-10-04 09:42:13,0.00,0.00,0.00,24.11,28.35,30.50,-0.12,-3.50,1022.37,2022.00,3729.88,3055.87,3516.07,0.00,0.00,0.00,0000 0000 0000 A000 020008
2018-10-04 09:47:14,0.00,0.00,0.00,24.12,28.37,30.50,-0.11,-3.50,1022.45,2022.00,3729.46,3055.35,3516.00,0.00,0.00,0.00,0000 0000 0000 A000 020008
2018-10-04 09:52:15,0.00,0.00,0.00,24.14,28.37,30.50,-0.11,-3.50,1022.47,2022.00,3729.22,3055.21,3516.00,0.00,0.00,0.00,0000 0000 0000 A000 020008
2018-10-04 09:57:16,0.00,0.00,0.00,24.15,28.39,30.56,-0.11,-3.50,1022.48,2022.00,3729.04,3055.06,3516.00,0.00,0.00,0.00,0000 0000 0000 A000 020008
2018-10-04 10:02:17,0.00,0.00,0.00,24.16,28.40,30.57,-0.11,-3.50,1022.48,2022.00,3729.02,3055.03,3516.00,0.00,0.00,0.00,0000 0000 0000 A000 020008
2018-10-04 10:07:18,0.00,0.00,0.00,24.17,28.41,30.53,-0.11,-3.50,1022.48,2022.00,3729.00,3055.01,3515.97,0.00,0.00,0.00,0000 0000 0000 A000 020008
2018-10-04 10:12:19,0.00,0.00,0.00,24.17,28.42,30.58,-0.11,-3.50,1022.48,2021.98,3729.00,3055.00,3515.98,0.00,0.00,0.00,0000 0000 0000 A000 020008
2018-10-04 10:17:20,0.00,0.00,0.00,24.17,28.43,30.58,-0.11,-3.50,1022.49,2021.97,3729.00,3055.00,3515.98,0.00,0.00,0.00,0000 0000 0000 A000 020008
2018-10-04 10:22:22,0.00,0.00,0.00,24.19,28.45,30.60,-0.11,-3.50,1022.50,2021.98,3729.00,3054.99,3515.93,0.00,0.00,0.00,0000 0000 0000 A000 020008
2018-10-04 10:27:23,0.00,0.00,0.00,24.21,28.45,30.61,-0.11,-3.50,1022.50,2021.95,3729.00,3054.99,3515.57,0.00,0.00,0.00,0000 0000 0000 A000 020008
2018-10-04 10:32:25,0.00,0.00,0.00,24.22,28.47,30.62,-0.10,-3.50,1022.51,2021.96,3728.98,3054.97,3515.22,0.00,0.00,0.00,0000 0000 0000 A000 020008
2018-10-04 10:37:26,0.00,0.00,0.00,24.22,28.48,30.66,-0.11,-3.50,1022.63,2021.96,3728.97,3054.97,3515.12,0.00,0.00,0.00,0000 0000 0000 A000 020008
2018-10-04 10:42:27,0.00,0.00,0.00,24.24,28.50,30.61,-0.10,-3.50,1022.81,2021.93,3728.97,3054.95,3515.11,0.00,0.00,0.00,0000 0000 0000 A000 020008
2018-10-04 10:47:28,0.00,0.00,0.00,24.25,28.50,30.65,-0.11,-3.50,1022.91,2021.46,3728.39,3054.36,3515.00,0.00,0.00,0.00,0000 0000 0000 A000 020008
2018-10-04 10:52:29,0.00,0.00,0.00,24.25,28.52,30.66,-0.11,-3.50,1022.96,2021.27,3728.14,3054.10,3515.00,0.00,0.00,0.00,0000 0000 0000 A000 020008
2018-10-04 10:57:30,0.00,0.00,0.00,24.25,28.52,30.64,-0.11,-3.50,1022.97,2021.10,3728.02,3054.03,3515.00,0.00,0.00,0.00,0000 0000 0000 A000 020008
2018-10-04 11:02:32,0.00,0.00,0.00,24.27,28.54,30.67,-0.11,-3.50,1022.99,2021.05,3728.02,3054.02,3514.98,0.00,0.00,0.00,0000 0000 0000 A000 020008
2018-10-04 11:07:33,0.00,0.00,0.00,24.27,28.55,30.72,-0.11,-3.50,1023.12,2021.04,3728.01,3054.01,3514.96,0.00,0.00,0.00,0000 0000 0000 A000 020008
2018-10-04 11:12:34,0.00,0.00,0.00,24.27,28.56,30.71,-0.11,-3.50,1023.29,2021.03,3728.00,3054.00,3514.86,0.00,0.00,0.00,0000 0000 0000 A000 020008
2018-10-04 11:17:35,0.00,0.00,0.00,24.29,28.57,30.70,-0.11,-3.50,1023.36,2021.00,3727.98,3054.00,3514.21,0.00,0.00,0.00,0000 0000 0000 A000 020008
2018-10-04 11:22:36,0.00,0.00,0.00,24.30,28.58,30.71,-0.11,-3.50,1023.42,2021.00,3727.98,3053.99,3514.07,0.00,0.00,0.00,0000 0000 0000 A000 020008
2018-10-04 11:27:37,0.00,0.00,0.00,24.30,28.60,30.66,-0.11,-3.50,1023.45,2021.00,3727.96,3053.98,3514.04,0.00,0.00,0.00,0000 0000 0000 A000 020008
2018-10-04 11:32:38,0.00,0.00,0.00,24.30,28.60,30.72,-0.12,-3.50,1023.45,2021.00,3727.96,3053.98,3514.03,0.00,0.00,0.00,0000 0000 0000 A000 020008
2018-10-04 11:37:39,0.00,0.00,0.00,24.31,28.62,30.73,-0.11,-3.50,1023.45,2021.00,3727.75,3053.92,3514.01,0.00,0.00,0.00,0000 0000 0000 A000 020008
2018-10-04 11:42:40,0.00,0.00,0.00,24.32,28.62,30.71,-0.12,-3.50,1023.45,2021.00,3727.66,3053.86,3514.00,0.00,0.00,0.00,0000 0000 0000 A000 020008
2018-10-04 11:47:42,0.00,0.00,0.00,24.32,28.64,30.76,-0.12,-3.50,1023.48,2021.00,3727.45,3053.67,3514.00,0.00,0.00,0.00,0000 0000 0000 A000 020008
2018-10-04 11:52:43,0.00,0.00,0.00,24.32,28.65,30.72,-0.11,-3.50,1023.52,2020.99,3727.13,3053.36,3514.00,0.00,0.00,0.00,0000 0000 0000 A000 020008
2018-10-04 11:57:44,0.00,0.00,0.00,24.32,28.66,30.74,-0.11,-3.50,1023.60,2020.99,3727.11,3053.25,3514.00,0.00,0.00,0.00,0000 0000 0000 A000 020008
2018-10-04 12:02:45,0.00,0.00,0.00,24.32,28.67,30.75,-0.12,-3.50,1023.81,2020.98,3727.03,3053.13,3513.99,0.00,0.00,0.00,0000 0000 0000 A000 020008
2018-10-04 12:07:46,0.00,0.00,0.00,24.34,28.67,30.72,-0.12,-3.50,1023.92,2020.97,3727.00,3053.04,3513.98,0.00,0.00,0.00,0000 0000 0000 A000 020008
2018-10-04 12:12:47,0.00,0.00,0.00,24.34,28.69,30.80,-0.12,-3.50,1023.94,2020.97,3727.01,3053.03,3513.96,0.00,0.00,0.00,0000 0000 0000 A000 020008
2018-10-04 12:17:49,0.00,0.00,0.00,24.35,28.70,30.77,-0.11,-3.50,1023.94,2020.92,3727.00,3053.00,3513.53,0.00,0.00,0.00,0000 0000 0000 A000 020008
2018-10-04 12:22:50,0.00,0.00,0.00,24.35,28.70,30.77,-0.11,-3.50,1023.94,2020.89,3726.99,3053.00,3513.16,0.00,0.00,0.00,0000 0000 0000 A000 020008
2018-10-04 12:27:51,0.00,0.00,0.00,24.35,28.71,30.78,-0.12,-3.50,1023.96,2020.72,3726.98,3053.00,3513.11,0.00,0.00,0.00,0000 0000 0000 A000 020008
2018-10-04 12:32:52,0.00,0.00,0.00,24.35,28.72,30.79,-0.11,-3.50,1023.96,2020.38,3726.94,3052.98,3513.01,0.00,0.00,0.00,0000 0000 0000 A000 020008
2018-10-04 12:37:53,0.00,0.00,0.00,24.35,28.72,30.84,-0.12,-3.50,1023.98,2020.26,3726.93,3052.99,3513.00,0.00,0.00,0.00,0000 0000 0000 A000 020008
2018-10-04 12:42:55,0.00,0.00,0.00,24.35,28.73,30.84,-0.12,-3.50,1023.99,2020.14,3726.89,3052.97,3513.01,0.00,0.00,0.00,0000 0000 0000 A000 020008
2018-10-04 12:47:56,0.00,0.00,0.00,24.36,28.75,30.81,-0.11,-3.51,1024.05,2020.07,3726.53,3052.96,3513.00,0.00,0.00,0.00,0000 0000 0000 A000 020008
2018-10-04 12:52:57,0.00,0.00,0.00,24.36,28.75,30.82,-0.12,-3.50,1024.22,2020.07,3726.66,3052.96,3513.00,0.00,0.00,0.00,0000 0000 0000 A000 020008
2018-10-04 12:57:58,0.00,0.00,0.00,24.37,28.75,30.80,-0.12,-3.50,1024.40,2020.02,3726.28,3052.82,3513.00,0.00,0.00,0.00,0000 0000 0000 A000 020008
2018-10-04 13:02:59,0.00,0.00,0.00,24.37,28.77,30.81,-0.13,-3.50,1024.41,2020.02,3726.15,3052.81,3513.00,0.00,0.00,0.00,0000 0000 0000 A000 020008
2018-10-04 13:08:00,0.00,0.00,0.00,24.37,28.77,30.82,-0.13,-3.50,1024.43,2020.03,3726.09,3052.71,3512.99,0.00,0.00,0.00,0000 0000 0000 A000 020008
2018-10-04 13:13:02,0.00,0.00,0.00,24.37,28.77,30.86,-0.12,-3.52,1024.43,2020.04,3726.18,3052.81,3512.99,0.00,0.00,0.00,0000 0000 0000 A000 020008
2018-10-04 13:18:03,0.00,0.00,0.00,24.40,28.78,30.84,-0.11,-3.52,1024.43,2020.01,3726.06,3052.49,3512.98,0.00,0.00,0.00,0000 0000 0000 A000 020008
2018-10-04 13:23:05,0.00,0.00,0.00,24.40,28.80,30.89,-0.12,-3.52,1024.44,2020.01,3726.03,3052.26,3512.97,0.00,0.00,0.00,0000 0000 0000 A000 020008